Temperature
17 17 17 16 16 16 16 16 16 15 15 15 15 15 14 14 14 14 14 14 14 14 14 14 13 13 13 13 13 13 13 13 13 13 13 13 13 13 13 12 12 12 12
16 17 16 16 16 16 16 16 15 15 15 15 15 15 14 14 14 14 14 14 14 14 13 13 13 13 13 13 13 13 13 13 13 13 13 12 12 12 12 12 12 12 12
17 17 16 16 16 16 16 16 15 15 15 15 15 14 14 14 14 14 14 13 13 13 13 13 13 13 13 13 13 13 13 12 12 12 12 12 12 12 12 12 12 12 12
16 16 16 16 16 16 16 16 15 15 15 15 15 14 14 14 14 13 13 13 13 13 13 13 12 12 12 12 12 12 12 12 12 12 12 12 11 11 11 11 11 11 11
16 16 16 16 16 16 16 16 15 15 15 15 14 14 14 14 13 13 13 13 13 13 12 12 12 12 12 12 12 12 12 12 12 11 11 11 11 11 11 11 11 11 11
16 16 16 16 16 16 16 15 15 15 15 14 14 14 14 14 13 13 13 13 13 12 12 12 12 12 12 12 12 12 11 11 11 11 11 11 11 11 11 10 10 10 10
15 16 16 16 16 15 15 15 15 15 15 14 14 14 14 13 13 13 13 13 12 12 12 12 12 12 12 12 11 11 11 11 11 11 11 11 10 10 10 10 10 10 10
15 15 15 16 15 15 15 15 15 15 14 14 14 14 13 13 13 13 12 12 12 12 12 12 12 11 11 11 11 11 11 11 10 10 10 10 10 10 10 10 10 9 9
15 15 15 15 15 15 15 15 15 15 14 14 14 13 13 13 13 12 12 12 12 12 12 11 11 11 11 11 11 11 10 10 10 10 10 10 10 10 10 10 9 9 9
15 15 15 15 15 15 15 14 14 14 14 14 14 13 13 13 12 12 12 12 12 12 11 11 11 11 11 11 11 10 10 10 10 10 10 10 10 10 10 9 9 9 9
14 14 15 14 15 14 14 14 14 14 14 13 13 13 13 13 12 12 12 12 11 11 11 11 11 11 10 10 10 10 10 10 10 10 9 9 9 9 9 9 9 9 9
14 14 14 14 14 14 14 14 13 13 13 13 13 13 12 12 12 12 12 11 11 11 11 11 11 10 10 10 10 10 9 9 9 9 9 9 9 9 9 9 9 9 9
13 14 14 14 14 14 13 13 13 13 13 13 13 12 12 12 12 11 11 11 11 11 11 11 10 10 10 10 9 9 9 9 9 9 9 9 9 9 9 9 9 9 9
13 13 13 13 13 13 13 13 13 13 13 12 12 12 12 12 11 11 11 11 11 11 10 10 10 10 10 9 9 9 9 9 9 8 8 8 8 8 8 8 8 8 8
13 13 13 13 13 13 13 13 12 12 12 12 12 12 12 11 11 11 11 10 10 10 10 10 10 9 9 9 9 9 9 8 8 8 8 8 8 8 8 8 8 8 8
13 13 13 13 13 13 12 12 12 12 12 12 11 11 11 11 11 10 10 10 10 10 9 9 9 9 9 9 8 8 8 8 8 8 8 8 8 8 8 8 8 8 8
13 13 13 13 13 13 12 12 12 11 11 11 11 11 10 10 10 10 10 10 9 9 9 9 9 8 8 8 8 8 8 8 8 7 7 8 8 8 8 8 8 8 7
13 13 13 13 13 12 12 11 11 11 11 11 10 10 10 10 10 9 9 9 9 9 9 8 8 8 8 8 8 8 7 7 7 7 7 7 7 7 7 7 7 7 7
13 13 12 12 12 12 11 11 10 10 10 10 10 10 10 10 9 9 9 9 9 9 8 8 8 8 8 8 7 7 7 7 7 7 7 7 7 7 7 7 7 7 7
12 12 12 12 12 11 11 10 10 10 10 10 10 10 9 9 9 9 9 8 8 8 8 8 8 8 7 7 7 7 7 7 7 7 7 7 7 7 7 7 7 7 7
12 12 12 11 11 11 10 10 10 10 10 10 9 9 9 9 9 8 8 8 8 8 8 7 7 7 7 7 7 7 6 6 6 6 6 6 6 6 6 6 6 6 7
11 11 11 11 10 10 10 10 9 9 9 9 9 9 9 8 8 8 8 8 8 7 7 7 7 7 7 7 6 6 6 6 6 6 6 6 6 6 6 6 6 6 6
11 10 10 10 10 10 9 9 9 9 9 8 8 8 8 8 8 8 7 7 7 7 7 7 6 6 6 6 6 6 6 5 5 5 5 5 5 5 5 5 5 5 5
10 10 10 10 9 9 9 9 8 8 8 8 8 8 7 7 7 7 7 7 7 7 6 6 6 6 6 6 6 5 5 5 5 5 5 5 5 5 5 5 5 5 5
10 9 9 9 9 9 8 8 8 8 8 7 7 7 7 7 7 7 7 7 7 6 6 6 6 5 5 5 5 5 5 5 5 5 5 5 5 5 5 5 4 4 4
9 9 9 9 8 8 8 8 7 7 7 7 7 7 6 6 6 6 6 6 6 6 5 5 5 5 5 5 5 5 4 4 4 4 4 4 4 4 4 4 4 4 4
Wind_Speed
3 2 3 3 4 4 4 3 4 3 3 2 2 2 2 2 2 4 5 5 5 5 5 4 4 4 4 3 3 3 4 4 3 3 3 4 4 4 4 4 4 5 6
2 3 3 3 4 4 4 4 4 4 3 2 2 2 2 1 1 3 4 5 5 5 4 4 3 3 3 4 4 3 2 2 3 2 2 3 4 4 4 4 4 4 4
6 5 5 5 5 5 5 5 4 4 3 3 3 3 3 3 2 2 2 3 3 4 4 3 3 3 2 2 2 2 3 1 2 2 2 2 1 3 3 3 4 4 3
5 5 6 6 6 6 5 4 4 4 3 4 4 5 3 2 1 0 1 2 3 3 3 3 3 2 2 1 1 2 1 2 1 1 2 1 2 0 2 3 3 3 3
6 6 7 7 6 5 5 4 4 4 3 4 5 5 3 1 0 1 1 2 2 3 2 2 2 2 1 1 1 1 2 1 1 1 0 1 2 1 1 2 3 3 3
5 4 5 4 4 4 4 5 5 4 3 4 4 5 4 3 2 1 0 1 1 2 3 2 2 1 1 0 0 1 1 1 1 1 1 1 0 1 1 1 2 3 3
4 3 4 5 5 5 5 5 5 4 4 4 4 4 4 4 4 2 1 0 1 1 2 2 1 1 1 1 1 1 1 1 1 1 0 0 0 1 1 1 1 2 2
2 3 5 5 6 6 6 6 6 5 5 5 4 3 3 3 2 2 2 1 1 2 1 1 1 1 1 1 1 1 0 1 0 0 0 0 1 1 1 2 1 1 2
2 3 3 4 5 5 6 7 7 5 5 4 4 4 3 3 2 2 1 1 1 0 0 0 0 1 1 1 1 1 0 0 0 1 0 0 1 1 1 1 2 2 0
1 1 2 3 4 4 4 5 5 5 4 4 4 3 3 3 2 2 2 1 1 0 1 0 0 1 1 1 1 1 0 1 0 0 0 1 1 1 1 1 1 2 2
1 1 2 2 2 3 4 4 4 4 4 4 3 3 2 2 2 2 1 1 1 1 1 0 0 0 1 1 1 1 1 0 1 1 1 2 1 1 1 0 0 1 2
1 1 0 1 2 3 3 4 5 5 4 4 4 3 3 3 2 1 1 1 1 0 1 1 0 0 0 0 0 1 1 0 1 2 1 2 1 1 1 0 1 1 2
0 0 1 1 1 2 3 3 3 4 3 4 4 3 3 3 2 2 1 1 1 1 1 1 1 0 0 1 1 1 1 0 1 1 1 2 1 1 2 1 1 1 1
2 1 1 1 1 2 2 3 2 2 3 4 4 4 3 3 3 2 1 1 1 1 1 0 0 0 0 0 0 0 1 1 1 1 1 1 1 2 2 1 1 1 0
2 3 2 2 2 2 1 2 2 2 3 4 4 4 3 3 2 2 1 1 1 1 1 1 1 1 1 0 0 1 1 1 1 2 2 2 2 3 2 2 1 0 1
4 3 3 2 2 3 2 2 2 3 3 4 4 3 2 2 2 2 2 1 1 2 2 2 2 2 2 3 3 1 1 1 1 2 3 3 3 4 4 4 2 1 1
5 4 4 4 4 4 3 3 2 3 3 3 3 3 3 3 2 2 2 2 2 2 2 1 1 1 2 3 3 3 2 1 0 1 2 3 3 4 2 3 3 2 2
4 4 4 4 3 3 2 2 2 3 3 3 2 3 3 3 3 2 2 2 2 2 1 1 0 1 2 3 3 3 2 1 1 1 1 2 3 3 3 2 2 2 3
4 4 4 4 3 3 3 3 3 2 2 2 2 3 3 3 3 3 3 2 2 2 1 1 1 0 2 3 2 3 1 1 1 2 2 2 2 5 4 1 2 3 4
1 2 3 3 3 3 4 4 3 2 2 3 2 2 3 4 4 3 2 2 2 2 1 1 0 0 1 2 2 2 1 0 1 2 3 4 4 5 4 1 1 2 4
1 3 3 3 3 3 4 4 3 3 3 2 2 2 3 3 3 3 2 2 2 2 1 1 1 1 1 2 2 2 0 1 1 1 2 3 5 5 4 3 1 3 3
2 3 3 2 2 3 4 4 4 3 2 2 2 1 2 2 2 3 2 2 2 2 1 0 1 1 2 2 2 2 2 2 0 1 2 2 4 4 4 3 4 4 3
2 2 3 2 2 3 4 4 3 2 3 3 2 1 1 1 2 3 3 2 2 2 2 1 1 2 2 2 3 2 2 3 1 2 3 3 3 3 3 4 5 4 2
2 2 3 3 2 2 2 3 2 3 3 3 2 1 1 1 1 1 2 3 3 3 3 3 3 2 2 2 1 1 1 2 2 2 2 3 3 3 4 4 3 2 1
2 2 3 3 2 2 1 2 3 4 3 3 2 1 1 1 1 1 2 3 4 5 4 4 4 3 3 4 3 1 1 1 1 1 1 2 2 2 2 2 2 2 2
2 2 2 2 2 2 2 1 3 4 4 2 2 1 1 1 1 1 1 2 2 3 3 3 3 3 4 3 2 3 2 1 1 2 0 1 1 1 2 2 2 2 2
Wind_Direction
221 175 160 141 128 121 121 130 128 124 120 113 109 95 76 47 41 43 52 58 61 61 68 68 60 57 59 57 53 61 55 35 25 46 25 13 22 33 31 32 33 30 25
206 187 167 155 157 154 153 151 155 150 148 145 136 130 126 91 69 38 41 48 59 61 69 71 69 64 66 57 55 63 67 40 32 53 55 10 358 11 22 24 34 25 25
204 197 185 183 175 172 174 174 173 163 154 129 106 90 68 54 41 27 20 18 42 57 61 69 74 72 80 75 57 74 86 68 14 43 87 95 286 323 346 12 24 18 21
205 198 192 190 190 189 177 169 161 154 150 141 136 133 131 136 208 232 329 10 27 39 52 66 74 80 79 82 67 77 66 100 46 7 31 110 157 133 328 339 3 8 10
205 202 200 197 192 179 171 167 159 154 150 147 152 144 133 144 121 69 50 19 14 21 32 58 75 74 79 90 78 79 74 88 99 71 13 41 40 70 168 302 327 345 344
209 204 194 177 176 168 165 162 162 165 160 154 153 152 151 148 131 99 57 346 347 0 18 43 61 54 51 38 118 125 113 99 93 86 95 117 137 238 175 229 299 312 315
198 187 176 175 176 175 176 168 170 174 169 163 163 166 166 167 175 181 192 239 325 326 325 12 34 29 349 356 82 113 124 122 120 131 183 144 198 199 177 170 255 297 308
198 197 191 186 186 183 178 174 173 173 174 173 176 175 172 172 181 185 182 199 232 252 299 356 12 17 3 15 68 94 154 108 142 317 200 187 266 215 187 189 180 335 330
216 211 199 193 193 188 187 184 176 169 175 175 171 167 169 170 178 186 176 193 238 256 49 85 35 5 15 42 80 77 288 140 206 235 205 298 279 268 246 201 191 168 247
331 238 212 207 198 189 181 175 174 172 172 167 168 168 172 173 170 162 175 186 193 98 81 25 300 334 7 36 83 64 356 85 303 222 337 309 303 311 300 230 213 175 179
261 262 246 214 178 158 158 162 167 162 161 164 163 153 156 151 143 147 184 186 171 162 156 164 132 338 13 19 61 9 9 27 322 337 331 307 311 314 319 321 186 184 167
225 213 177 156 151 156 161 170 171 173 175 170 159 155 152 141 134 143 181 165 151 147 167 163 138 210 209 260 165 274 323 272 292 304 309 300 325 317 308 272 245 238 205
168 109 91 122 157 167 169 171 174 180 174 160 153 149 150 147 150 163 183 150 128 87 74 102 139 199 244 229 230 223 271 277 300 298 295 300 333 310 301 286 267 254 252
195 182 149 164 170 164 168 173 173 166 156 149 152 159 171 170 169 168 168 170 146 127 108 90 149 202 264 247 234 107 69 27 355 327 312 310 286 279 283 288 267 245 213
220 205 186 187 164 154 163 163 167 158 153 151 161 180 176 159 150 146 151 132 99 88 81 67 40 25 23 345 134 145 101 67 5 346 327 312 308 308 310 312 282 216 163
224 214 188 178 183 185 182 168 172 175 159 162 177 177 152 142 150 150 140 116 95 82 76 71 61 36 7 6 26 72 110 87 15 329 320 312 319 326 331 322 316 292 188
220 209 202 200 200 200 191 182 179 160 154 162 172 170 163 159 170 154 133 139 136 105 86 66 65 35 346 9 28 40 90 84 352 303 315 326 332 337 336 341 346 320 299
216 213 202 198 192 181 168 157 138 142 148 150 168 173 168 170 165 154 155 159 142 129 125 112 81 30 351 11 29 44 53 46 342 307 302 306 319 327 343 0 357 334 313
216 204 195 186 172 163 156 140 142 145 148 164 184 188 176 172 165 172 180 173 150 144 146 156 136 69 340 359 23 46 77 41 328 315 330 325 309 321 343 11 342 332 325
191 171 154 145 157 164 150 146 158 162 185 201 200 191 176 172 176 186 185 172 154 154 142 104 118 193 296 334 4 35 91 21 318 324 324 331 333 337 348 357 324 313 311
145 143 140 155 180 166 152 157 170 200 216 195 161 155 171 176 179 170 164 155 145 124 108 90 6 309 302 312 331 4 52 222 261 304 320 316 330 339 342 347 327 299 316
108 134 145 162 172 161 157 168 199 209 170 136 134 140 162 184 166 154 156 153 149 143 144 141 345 322 310 317 298 309 324 331 227 271 284 302 331 347 352 351 349 358 15
146 144 148 146 159 166 166 181 209 165 136 125 127 119 120 151 157 158 169 170 171 176 198 205 244 288 300 302 307 293 307 322 314 285 308 328 349 2 356 349 1 15 29
165 148 140 145 168 182 182 185 172 142 134 141 146 133 123 101 122 164 178 183 190 197 208 220 235 258 272 273 271 264 277 314 323 329 339 357 4 13 358 355 354 360 358
171 160 165 170 180 172 173 162 149 138 140 153 155 139 149 159 180 211 220 214 215 210 210 218 217 222 244 260 266 237 236 255 253 48 25 22 14 3 352 345 341 344 349
160 158 158 160 167 157 159 155 151 149 150 153 160 166 192 192 184 201 317 313 271 256 238 237 239 250 263 273 252 253 267 285 101 91 52 321 309 301 302 308 311 314 307
Height
1529 1530 1531 1532 1533 1534 1535 1536 1537 1537 1538 1538 1538 1538 1538 1538 1538 1537 1537 1536 1536 1535 1534 1534 1533 1533 1532 1531 1530 1530 1529 1528 1528 1527 1527 1527 1526 1526 1525 1524 1524 1523 1523
1527 1528 1529 1531 1532 1533 1534 1535 1536 1537 1537 1538 1538 1538 1538 1538 1538 1538 1537 1537 1536 1535 1535 1534 1533 1533 1532 1531 1531 1530 1529 1528 1528 1527 1526 1526 1527 1526 1525 1524 1524 1523 1522
1524 1526 1528 1529 1530 1531 1533 1534 1535 1536 1536 1537 1537 1537 1538 1538 1538 1537 1537 1536 1536 1535 1534 1534 1533 1533 1532 1531 1530 1530 1529 1529 1528 1528 1528 1527 1526 1525 1525 1524 1524 1523 1522
1522 1524 1525 1527 1528 1530 1531 1533 1534 1535 1535 1536 1536 1536 1536 1536 1536 1537 1536 1536 1536 1535 1534 1533 1533 1532 1532 1531 1530 1530 1529 1529 1528 1528 1527 1528 1527 1526 1525 1524 1523 1522 1521
1519 1521 1523 1524 1526 1528 1530 1531 1532 1534 1534 1535 1535 1535 1536 1536 1536 1536 1536 1536 1535 1534 1533 1533 1532 1532 1531 1530 1530 1529 1529 1529 1528 1528 1527 1527 1526 1525 1524 1522 1522 1521 1521
1516 1518 1520 1522 1524 1526 1528 1529 1531 1532 1533 1533 1534 1534 1535 1535 1535 1535 1535 1535 1534 1534 1533 1532 1532 1531 1530 1530 1529 1529 1528 1528 1528 1527 1527 1526 1525 1524 1523 1522 1520 1519 1519
1514 1515 1517 1519 1521 1523 1525 1527 1528 1529 1531 1532 1532 1533 1534 1534 1534 1534 1534 1534 1533 1532 1532 1531 1531 1530 1530 1529 1528 1528 1527 1527 1527 1526 1526 1525 1525 1524 1523 1521 1519 1518 1517
1512 1513 1515 1517 1519 1521 1523 1524 1526 1527 1528 1530 1530 1532 1532 1533 1533 1533 1533 1533 1532 1531 1531 1530 1529 1529 1528 1528 1527 1527 1526 1526 1526 1525 1525 1524 1524 1523 1522 1521 1519 1517 1516
1511 1512 1513 1515 1517 1519 1520 1522 1523 1525 1526 1527 1529 1530 1531 1531 1531 1532 1532 1531 1531 1530 1530 1529 1528 1528 1527 1527 1526 1525 1525 1524 1524 1524 1523 1523 1522 1521 1521 1520 1518 1518 1515
1510 1511 1512 1513 1515 1517 1518 1520 1521 1523 1525 1526 1527 1528 1529 1529 1530 1530 1530 1530 1529 1529 1528 1527 1527 1526 1525 1525 1525 1524 1524 1523 1522 1522 1521 1521 1520 1520 1519 1518 1517 1516 1515
1509 1509 1510 1512 1513 1515 1516 1518 1519 1521 1523 1524 1525 1526 1527 1528 1528 1528 1528 1528 1527 1527 1527 1526 1525 1524 1524 1523 1523 1522 1522 1521 1521 1520 1519 1519 1518 1518 1517 1516 1516 1515 1514
1508 1509 1509 1510 1512 1513 1514 1515 1517 1519 1520 1522 1523 1524 1525 1526 1526 1526 1526 1526 1526 1525 1525 1524 1524 1523 1522 1522 1521 1521 1520 1520 1519 1518 1518 1517 1517 1516 1515 1515 1514 1513 1513
1507 1508 1508 1509 1510 1511 1512 1513 1515 1516 1518 1519 1520 1522 1523 1523 1524 1524 1524 1524 1524 1523 1523 1522 1522 1521 1520 1520 1519 1519 1518 1518 1517 1516 1516 1515 1515 1514 1513 1513 1512 1512 1511
1506 1506 1506 1507 1508 1509 1510 1511 1512 1514 1515 1517 1518 1519 1520 1521 1521 1522 1522 1522 1522 1521 1521 1520 1520 1519 1519 1518 1517 1517 1516 1516 1515 1515 1514 1514 1513 1512 1511 1511 1510 1509 1509
1504 1504 1505 1505 1506 1507 1508 1509 1510 1512 1513 1514 1515 1516 1517 1518 1519 1519 1520 1520 1519 1519 1519 1518 1518 1517 1517 1516 1515 1515 1514 1514 1513 1513 1512 1512 1511 1510 1510 1509 1508 1507 1507
1502 1502 1503 1504 1504 1505 1506 1507 1508 1509 1510 1511 1512 1514 1515 1515 1516 1516 1517 1517 1517 1517 1517 1516 1516 1515 1515 1514 1514 1513 1512 1512 1511 1511 1510 1510 1509 1508 1508 1507 1507 1506 1506
1499 1500 1501 1502 1503 1503 1504 1505 1505 1507 1508 1509 1510 1512 1512 1513 1514 1514 1514 1514 1515 1515 1515 1514 1514 1514 1513 1513 1512 1511 1511 1510 1509 1509 1508 1508 1507 1506 1506 1505 1504 1504 1504
1497 1498 1499 1500 1501 1502 1503 1503 1504 1505 1505 1506 1508 1509 1510 1510 1511 1512 1512 1512 1513 1513 1513 1513 1512 1512 1511 1511 1510 1510 1509 1508 1508 1507 1507 1506 1505 1505 1504 1503 1503 1502 1501
1495 1496 1497 1498 1499 1499 1500 1501 1502 1502 1503 1504 1505 1506 1507 1508 1508 1509 1509 1510 1510 1510 1510 1510 1510 1509 1509 1509 1508 1508 1507 1506 1506 1505 1505 1504 1504 1503 1503 1502 1500 1500 1499
1493 1494 1495 1496 1496 1497 1498 1499 1499 1500 1500 1501 1502 1503 1504 1505 1506 1506 1507 1507 1508 1508 1508 1508 1508 1507 1507 1507 1506 1506 1505 1504 1503 1503 1502 1502 1501 1501 1500 1499 1498 1497 1496
1491 1492 1492 1493 1494 1495 1496 1496 1497 1497 1498 1499 1500 1501 1502 1503 1503 1504 1505 1505 1505 1506 1506 1505 1506 1505 1505 1505 1504 1504 1503 1502 1501 1501 1500 1499 1499 1499 1498 1497 1496 1496 1495
1489 1490 1490 1491 1492 1493 1494 1494 1495 1496 1496 1497 1498 1499 1500 1500 1501 1501 1502 1503 1503 1503 1503 1503 1503 1503 1503 1502 1502 1501 1501 1500 1500 1499 1498 1497 1497 1496 1496 1495 1494 1494 1493
1488 1488 1489 1489 1490 1491 1492 1492 1493 1494 1494 1495 1496 1497 1498 1498 1498 1499 1499 1500 1500 1500 1500 1500 1500 1500 1500 1500 1499 1499 1498 1498 1497 1497 1496 1495 1495 1494 1493 1492 1492 1491 1490
1486 1487 1487 1488 1488 1489 1490 1491 1491 1492 1492 1493 1494 1495 1495 1495 1496 1496 1497 1497 1497 1497 1497 1497 1497 1497 1497 1497 1496 1496 1495 1495 1495 1494 1493 1493 1492 1492 1491 1490 1489 1489 1488
1485 1485 1485 1486 1487 1487 1488 1489 1489 1490 1491 1491 1492 1493 1493 1493 1493 1494 1494 1494 1494 1495 1495 1494 1494 1494 1494 1494 1494 1493 1493 1493 1492 1492 1491 1490 1489 1488 1488 1487 1487 1486 1486
1483 1483 1484 1484 1485 1485 1486 1487 1487 1488 1488 1489 1489 1490 1491 1491 1491 1491 1491 1491 1492 1492 1492 1492 1492 1491 1492 1491 1491 1491 1490 1490 1489 1489 1488 1487 1487 1486 1485 1485 1484 1484 1483